Voltar ao catálogo

SCOUT A R/B

AtivoPO
NORAD 2180·ROCKET BODY·🇺🇸 United States

Lançado May 19, 1966 de Vandenberg Space Force Base

Loading…

Próximas Passagens (próximas 24 horas)

TLE

AtualizadoSource: Space-Track

Época: Sep 14, 2026, 11:36 UTC

1 02180U 66041B   26257.48356995  .00000105  00000-0  61468-4 0  9994
2 02180  90.2164  84.6989 0079393  41.7945 318.9261 14.01128576 75771

Acompanhe SCOUT A R/B em tempo real com AllMySat

Download on the App Store